Location: Killam
(52.7910°N, 111.8608°W)
Time: 08:14:21
(UTC+00:00)

A-11 Canister half - Pass Details

Date: 23 February 2026
Orbit: 1524 x 1683 km, 47.3° (Epoch: 12 March)

Event Time Altitude Azimuth Distance (km) Brightness Sun altitude
Rises 05:42:54 0° 285° (WNW) 4,679 12.1 -40.9°
Reaches altitude 10° 05:46:58 10° 270° (W) 3,694 11.3 -41.3°
Enters shadow 05:51:39 19° 239° (WSW) 3,034 10.5 -41.7°
Maximum altitude 05:53:03 20° 228° (SW) 2,995 - -41.8°
Drops below altitude 10° 05:59:13 10° 186° (S) 3,722 - -42.4°
Sets 06:03:22 0° 170° (S) 4,724 - -42.7°
